[[{"header":{"parameterUnit":"m.s-1","parameterCategory":1,"la1":30.2991,"la2":30.254,"lo1":-89.0895,"lo2":-89.0444,"dy":0.0017,"dx":0.0017,"nx":28,"ny":28,"refTime":"2024-06-01T03:00:00:Z","depth":0,"parameterNumber":2,"parameterNumberName":"U-component_of_WINDS"},"data":[0,0,0,0,0,0,0,0,0,0,0,0,0,0,0,0,0,0,0,0,0,0,0,0,0,0,0,0,0,0,0,0,0,0,0,0,0,0,0,0,0,0,0,0,0,0,0,0,0,0,0,0,0,0,0,0,0,0,-0.2884,-0.2884,0,-0.2868,-0.2867,-0.2867,-0.2879,-0.288,-0.288,-0.2881,-0.286,-0.2859,-0.2857,0,0,0,0,0,0,0,0,0,0,0,0,0,-0.2921,-0.292,-0.2884,-0.2884,-0.2884,-0.2868,-0.2867,-0.2867,-0.2879,-0.288,-0.288,-0.2881,-0.286,-0.2859,-0.2857,0,0,0,0,0,0,0,0,0,0,0,0,0,-0.2905,-0.292,-0.2884,-0.2888,-0.2888,-0.2868,-0.2867,-0.2867,-0.2879,-0.288,-0.2881,-0.2881,-0.286,-0.2859,-0.2857,-0.2831,0,0,-0.2852,-0.2852,0,0,0,0,0,0,0,0,-0.2906,-0.2903,-0.2887,-0.2887,-0.2888,-0.2876,-0.2873,-0.2855,-0.2879,-0.2882,-0.2881,-0.2882,-0.2864,-0.2862,-0.2857,-0.283,-0.2829,-0.2852,-0.2851,-0.2851,-0.285,0,0,0,0,0,0,0,-0.2907,-0.2904,-0.2877,-0.2887,-0.2887,-0.2889,-0.2887,-0.2869,-0.2869,-0.2882,-0.2883,-0.2881,-0.2864,-0.2859,-0.2857,-0.2829,-0.2852,-0.2851,-0.285,-0.2849,-0.2778,-0.2777,0,0,0,0,0,0,-0.2908,-0.2905,-0.2878,-0.2877,-0.2899,-0.2887,-0.2886,-0.2879,-0.2869,-0.2868,-0.288,-0.2882,-0.2861,-0.2859,-0.2856,-0.2824,-0.2851,-0.2849,-0.2848,-0.2779,-0.2778,-0.2777,0,0,0,0,0,0,-0.2909,-0.2906,-0.2879,-0.2891,-0.2888,-0.2886,-0.2878,-0.2878,-0.2873,-0.2868,-0.2867,-0.2875,-0.2862,-0.2858,-0.2837,-0.2823,-0.2848,-0.2847,-0.278,-0.2778,-0.2777,-0.276,0,0,0,0,0,0,-0.291,-0.2906,-0.2897,-0.2891,-0.2887,-0.2861,-0.2877,-0.2877,-0.2871,-0.2872,-0.2863,-0.2862,-0.2862,-0.284,-0.2836,-0.2822,-0.2846,-0.2781,-0.2779,-0.2778,-0.2762,-0.2758,-0.2755,0,0,0,0,0,-0.2911,-0.2892,-0.2896,-0.2893,-0.2876,-0.286,-0.2858,-0.286,-0.2869,-0.286,-0.2856,-0.2862,-0.2826,-0.2837,-0.2833,-0.2818,-0.2782,-0.278,-0.2778,-0.2763,-0.2759,-0.2755,0,0,0,0,0,0,-0.2895,-0.2891,-0.2896,-0.2875,-0.2868,-0.2863,-0.285,-0.2856,-0.2845,-0.2846,-0.2848,-0.2846,-0.2823,-0.2819,-0.2832,-0.2792,-0.2805,-0.2802,-0.2796,-0.2791,-0.2788,-0.2789,-0.2844,0,0,0,0,0,-0.289,-0.2878,-0.2875,-0.2856,-0.2853,-0.2852,-0.2845,-0.2848,-0.284,-0.2837,-0.2832,-0.2823,-0.2809,-0.28,-0.2788,-0.2761,-0.2758,-0.2749,-0.2746,-0.2743,-0.274,-0.2724,-0.2719,-0.277,-0.277,-0.277,0,0,-0.2877,-0.2873,-0.2866,-0.2853,-0.2848,-0.2835,-0.285,-0.2835,-0.2825,-0.2834,-0.2814,-0.281,-0.28,-0.2776,-0.2765,-0.2771,-0.2725,-0.274,-0.2738,-0.2736,-0.2721,-0.2717,-0.2712,-0.2768,-0.2769,-0.2769,0,0,-0.2847,-0.2844,-0.2828,-0.2823,-0.2815,-0.2815,-0.2811,-0.2805,-0.2803,-0.2783,-0.2789,-0.2776,-0.2753,-0.2745,-0.2738,-0.2705,-0.271,-0.2701,-0.2683,-0.2668,-0.2664,-0.266,-0.2647,-0.2642,-0.2698,-0.2698,-0.2698,0,-0.2832,-0.2814,-0.2819,-0.2804,-0.2797,-0.2806,-0.2789,-0.2783,-0.2771,-0.2766,-0.2773,-0.2744,-0.2738,-0.2712,-0.2704,-0.2698,-0.2692,-0.2702,-0.2664,-0.2661,-0.2658,-0.2645,-0.264,-0.2697,-0.2697,-0.2697,-0.2698,0,-0.2795,-0.2782,-0.277,-0.276,-0.2752,-0.2736,-0.2736,-0.2727,-0.273,-0.2728,-0.2707,-0.27,-0.2686,-0.268,-0.2682,-0.2653,-0.2657,-0.2665,-0.2678,-0.2652,-0.2639,-0.2635,-0.2696,-0.2696,-0.2696,-0.2697,0,0,-0.2754,-0.2747,-0.2742,-0.2737,-0.273,-0.2719,-0.2703,-0.269,-0.2682,-0.2673,-0.2658,-0.2638,-0.2645,-0.2637,-0.2639,-0.2625,-0.2598,-0.2634,-0.2634,-0.2626,-0.2563,-0.2557,-0.2551,-0.2601,-0.26,-0.2599,-0.2564,0,-0.2723,-0.2696,-0.2699,-0.2673,-0.266,-0.2668,-0.2654,-0.2647,-0.2645,-0.2632,-0.2629,-0.2615,-0.2626,-0.2621,-0.2608,-0.2604,-0.2585,-0.2606,-0.2585,-0.2584,-0.2586,-0.2545,-0.2538,-0.2505,-0.2559,-0.2558,-0.2558,0,-0.2683,-0.2674,-0.2647,-0.2641,-0.2635,-0.2622,-0.261,-0.2599,-0.2591,-0.259,-0.2581,-0.2585,-0.2566,-0.2581,-0.2554,-0.2569,-0.256,-0.2557,-0.2555,-0.2552,-0.2568,-0.2539,-0.2494,-0.2489,-0.2551,-0.2551,-0.2552,0,-0.2654,-0.2635,-0.2616,-0.2612,-0.2605,-0.2595,-0.2591,-0.2584,-0.2576,-0.2565,-0.2559,-0.2546,-0.2538,-0.2527,-0.2525,-0.2536,-0.2498,-0.2513,-0.2495,-0.2495,-0.2485,-0.2486,-0.2437,-0.2482,-0.2482,-0.2482,-0.2483,0,-0.2618,-0.26,-0.2603,-0.2591,-0.2571,-0.2575,-0.2554,-0.2551,-0.2545,-0.2531,-0.2537,-0.2524,-0.2524,-0.251,-0.2509,-0.2486,-0.2482,-0.248,-0.2479,-0.2478,-0.2478,-0.2472,-0.2473,-0.2481,-0.2481,-0.2482,-0.2482,0,-0.2581,-0.2583,-0.2562,-0.2557,-0.2556,-0.2541,-0.2536,-0.2524,-0.2523,-0.2505,-0.2501,-0.2498,-0.2482,-0.248,-0.2461,-0.246,-0.2432,-0.2435,-0.2435,-0.2435,-0.2416,-0.2418,-0.236,-0.2352,-0.2404,-0.2404,-0.2404,0,-0.2557,-0.2544,-0.2538,-0.253,-0.2526,-0.2513,-0.2506,-0.2508,-0.2499,-0.2488,-0.2477,-0.2462,-0.2449,-0.2422,-0.2417,-0.2402,-0.2403,-0.2384,-0.2401,-0.24,-0.2401,-0.2401,-0.2399,-0.2381,-0.238,-0.238,-0.2379,0,-0.2514,-0.2516,-0.2505,-0.2494,-0.2485,-0.2476,-0.2468,-0.246,-0.2462,-0.2451,-0.2436,-0.2426,-0.2407,-0.239,-0.2375,-0.2369,-0.2373,-0.2374,-0.2369,-0.2367,-0.2367,-0.2365,-0.2425,-0.2375,-0.2376,-0.2376,-0.2376,-0.2376,-0.2482,-0.247,-0.2464,-0.2452,-0.2446,-0.2439,-0.2427,-0.2424,-0.2412,-0.2397,-0.2399,-0.2381,-0.2372,-0.2352,-0.2345,-0.233,-0.2336,-0.2329,-0.2326,-0.2324,-0.2322,-0.2371,-0.2327,-0.2327,-0.2327,-0.2327,-0.2328,0,-0.2438,-0.2435,-0.2423,-0.2412,-0.2402,-0.2409,-0.24,-0.2391,-0.2375,-0.2367,-0.2355,-0.2336,-0.232,-0.2314,-0.2299,-0.2287,-0.2288,-0.2283,-0.2282,-0.2281,-0.2318,-0.2323,-0.2282,-0.2282,-0.2282,-0.2282,-0.2282,-0.2282,-0.2413,-0.2394,-0.2394,-0.2371,-0.2368,-0.2352,-0.2346,-0.2338,-0.2331,-0.2311,-0.2298,-0.2295,-0.2287,-0.2271,-0.2256,-0.2254,-0.2247,-0.224,-0.2239,-0.2274,-0.2278,-0.2283,-0.2288,-0.2239,-0.2239,-0.2203,-0.2203,-0.2202]},{"header":{"parameterUnit":"m.s-1","parameterCategory":1,"la1":30.2991,"la2":30.254,"lo1":-89.0895,"lo2":-89.0444,"dy":0.0017,"dx":0.0017,"nx":28,"ny":28,"refTime":"2024-06-01T03:00:00:Z","depth":0,"parameterNumber":3,"parameterNumberName":"V-component_of_WINDS"},"data":[0,0,0,0,0,0,0,0,0,0,0,0,0,0,0,0,0,0,0,0,0,0,0,0,0,0,0,0,0,0,0,0,0,0,0,0,0,0,0,0,0,0,0,0,0,0,0,0,0,0,0,0,0,0,0,0,0,0,0.4947,0.4948,0,0.503,0.5031,0.5032,0.5111,0.5112,0.5113,0.5114,0.5196,0.5197,0.5198,0,0,0,0,0,0,0,0,0,0,0,0,0,0.4851,0.4852,0.4947,0.4948,0.4949,0.503,0.5031,0.5032,0.5111,0.5112,0.5113,0.5114,0.5195,0.5197,0.5198,0,0,0,0,0,0,0,0,0,0,0,0,0,0.4909,0.4853,0.4947,0.4998,0.5004,0.503,0.5031,0.5033,0.511,0.5112,0.5113,0.5115,0.5195,0.5197,0.5198,0.518,0,0,0.5204,0.5205,0,0,0,0,0,0,0,0,0.4906,0.4912,0.499,0.4995,0.5001,0.5062,0.5027,0.5082,0.511,0.507,0.5114,0.5116,0.515,0.5155,0.5167,0.5184,0.5187,0.5204,0.5205,0.5206,0.5207,0,0,0,0,0,0,0,0.4901,0.4909,0.498,0.4991,0.4998,0.5015,0.5025,0.5038,0.51,0.5073,0.5079,0.5088,0.5153,0.5165,0.517,0.5188,0.5204,0.5206,0.5207,0.5208,0.5188,0.5186,0,0,0,0,0,0,0.489,0.4905,0.4977,0.4983,0.4956,0.5015,0.5027,0.5041,0.51,0.5111,0.5087,0.5092,0.5162,0.5168,0.5173,0.5153,0.5206,0.5208,0.5209,0.5189,0.5187,0.5186,0,0,0,0,0,0,0.4888,0.4896,0.4974,0.4946,0.4957,0.5016,0.5031,0.5041,0.5054,0.511,0.5121,0.5089,0.5163,0.5171,0.5177,0.5157,0.5209,0.521,0.5191,0.5189,0.5187,0.5113,0,0,0,0,0,0,0.4885,0.4895,0.489,0.4945,0.4958,0.4978,0.503,0.5042,0.5058,0.5065,0.5115,0.5125,0.5165,0.5173,0.5178,0.516,0.5212,0.5194,0.519,0.5187,0.5118,0.5109,0.5101,0,0,0,0,0,0.4881,0.4867,0.489,0.4898,0.4954,0.4977,0.4984,0.5032,0.5056,0.505,0.5085,0.5123,0.5158,0.5173,0.518,0.5162,0.5195,0.5191,0.5188,0.5122,0.5111,0.5101,0,0,0,0,0,0,0.4809,0.4875,0.4901,0.4905,0.4934,0.499,0.4986,0.5019,0.5042,0.5048,0.5104,0.5114,0.5113,0.5138,0.5154,0.5144,0.5181,0.5179,0.5129,0.5119,0.511,0.5105,0.5213,0,0,0,0,0,0.4793,0.4808,0.4864,0.4862,0.4875,0.4927,0.4939,0.4972,0.5005,0.5018,0.5054,0.5083,0.51,0.5111,0.513,0.5121,0.5131,0.5111,0.5102,0.5095,0.5093,0.5086,0.5077,0.5174,0.5174,0.5174,0,0,0.4762,0.4799,0.4806,0.4848,0.4875,0.4886,0.4938,0.4949,0.4957,0.502,0.5028,0.5054,0.509,0.5087,0.5088,0.5108,0.5068,0.5091,0.5084,0.5086,0.5081,0.5072,0.5064,0.5171,0.5171,0.5172,0,0,0.471,0.4741,0.4741,0.4765,0.4805,0.4839,0.4838,0.4888,0.4908,0.4916,0.4962,0.4971,0.5,0.5023,0.5038,0.4988,0.5022,0.4992,0.4948,0.4941,0.4934,0.4927,0.4907,0.49,0.4989,0.4989,0.4989,0,0.4666,0.4687,0.4736,0.4743,0.4759,0.4814,0.4812,0.4834,0.4877,0.4885,0.4907,0.4942,0.497,0.4972,0.4959,0.497,0.4969,0.4988,0.4931,0.4925,0.492,0.4901,0.4894,0.4985,0.4985,0.4986,0.4986,0,0.4629,0.4642,0.4636,0.4676,0.4691,0.4694,0.474,0.4749,0.4778,0.4808,0.4814,0.4848,0.4874,0.4876,0.4906,0.4881,0.4892,0.4921,0.4959,0.4906,0.4889,0.4883,0.4979,0.498,0.4982,0.4983,0,0,0.454,0.4602,0.4599,0.4616,0.4661,0.4671,0.4673,0.4698,0.4703,0.4729,0.4731,0.4751,0.4777,0.4794,0.4826,0.482,0.4774,0.485,0.4851,0.4834,0.4745,0.4723,0.4715,0.4796,0.4795,0.4794,0.4742,0,0.4495,0.4506,0.4547,0.4544,0.4554,0.4603,0.4605,0.4631,0.4657,0.4668,0.4697,0.471,0.4745,0.4755,0.475,0.4781,0.4757,0.4785,0.4797,0.4797,0.4788,0.4707,0.4685,0.4634,0.4736,0.4735,0.4734,0,0.4447,0.4468,0.4466,0.4506,0.4512,0.4513,0.4536,0.4547,0.4575,0.4594,0.461,0.4645,0.4647,0.4681,0.4683,0.4701,0.4708,0.4723,0.4722,0.4726,0.4764,0.4708,0.4619,0.4611,0.4725,0.4726,0.4727,0,0.438,0.4408,0.441,0.4422,0.447,0.4468,0.4488,0.4518,0.4528,0.4547,0.4554,0.4572,0.4583,0.4595,0.4633,0.4654,0.4629,0.4667,0.4644,0.4643,0.4639,0.4639,0.4549,0.4641,0.4641,0.4642,0.4642,0,0.4328,0.4324,0.438,0.4381,0.4376,0.4421,0.4415,0.4439,0.4463,0.4468,0.451,0.4513,0.4562,0.4569,0.4598,0.4594,0.4598,0.4612,0.462,0.4609,0.4607,0.4615,0.462,0.464,0.464,0.464,0.4641,0,0.4255,0.4292,0.4296,0.4338,0.4349,0.4343,0.4379,0.438,0.4406,0.4411,0.4414,0.4456,0.4466,0.4504,0.4524,0.4542,0.4529,0.4544,0.452,0.4525,0.4499,0.4501,0.4413,0.4403,0.45,0.4499,0.4498,0,0.4219,0.4217,0.4258,0.4263,0.428,0.4289,0.4299,0.4341,0.4349,0.4378,0.4374,0.4387,0.4401,0.4414,0.4445,0.4459,0.4474,0.4442,0.4477,0.4464,0.4473,0.4473,0.4472,0.4435,0.4434,0.4433,0.4432,0,0.4152,0.4169,0.4182,0.42,0.421,0.4226,0.4245,0.4246,0.4292,0.4298,0.4309,0.4318,0.4336,0.4348,0.4366,0.4383,0.4414,0.442,0.4416,0.4405,0.4391,0.4397,0.4499,0.4423,0.4424,0.4425,0.4425,0.4425,0.4097,0.4095,0.4122,0.4134,0.4151,0.4166,0.4168,0.4193,0.4203,0.4221,0.4244,0.425,0.4274,0.4301,0.4315,0.4319,0.4337,0.433,0.4329,0.4327,0.432,0.4388,0.4322,0.4323,0.4323,0.4323,0.4323,0,0.4031,0.4049,0.4059,0.4082,0.409,0.4117,0.4137,0.4141,0.4147,0.4166,0.4176,0.4186,0.4196,0.4225,0.4237,0.4235,0.4249,0.4236,0.4238,0.424,0.4304,0.4307,0.4224,0.4224,0.4224,0.4224,0.4225,0.4225,0.3998,0.3996,0.4015,0.4021,0.4039,0.4046,0.4054,0.4067,0.4082,0.409,0.4099,0.4117,0.4139,0.4152,0.4161,0.417,0.4172,0.4155,0.4167,0.4227,0.4236,0.4246,0.4248,0.4155,0.4155,0.4103,0.4103,0.4102]}]]